Garden City, KS

8:00 AM CST on January 21, 2018 (GMT -0600)
Garden City Regional

Weather History for KGCK - May, 2013

Change the Weather History Date:

Wednesday, May 1, 2013

  Actual Average Record
Temperature  
Mean Temperature 49 °F 58 °F  
Max Temperature 66 °F 72 °F 98 °F (1992)
Min Temperature 32 °F 45 °F 26 °F (1967)
Degree Days  
Heating Degree Days 16 8  
Month to date heating degree days 16 8  
Since 1 July heating degree days 5070 5070  
Moisture  
Dew Point 36 °F    
Average Humidity 73    
Maximum Humidity 96    
Minimum Humidity 50    
Precipitation  
Precipitation T in 0.07 in 1.12 in (1978)
Month to date precipitation T 0.07  
Year to date precipitation 0.88 4.13  
Sea Level Pressure  
Sea Level Pressure 30.16 in    
Wind  
Wind Speed 28 mph (NNE)    
Max Wind Speed 41 mph    
Max Gust Speed 54 mph    
Visibility 5 miles    
Events Rain , Snow    
T = Trace of Precipitation, MM = Missing Value Source: NWS Daily Summary

Daily Weather History Graph

Daily Weather History Graph

Search for Another Location

Airport or City:

Trip Planner

Search our weather history database for the weather conditions in past years. The results will help you decide how hot, cold, wet, or windy it might be!

Date:

Astronomy

May. 01, 2013 Rise Set
Actual Time 6:46 AM CDT 8:33 PM CDT
Civil Twilight 6:18 AM CDT 9:02 PM CDT
Nautical Twilight 5:43 AM CDT 9:36 PM CDT
Astronomical Twilight 5:07 AM CDT 10:13 PM CDT
Moon 1:44 AM CDT (5/1) 12:26 PM CDT (5/1)
Length of Visible Light 14h 44m
Length of Day
13h 47m
Waning Gibbous, 59% of the Moon is Illuminated
May 1
Waning Gibbous
May 2
Last Quarter
May 9
New
May 17
First Quarter
May 24
Full

Hourly Weather History & Observations

Time (CDT) Temp. Windchill Dew Point Humidity Pressure Visibility Wind Dir Wind Speed Gust Speed Precip Events Conditions
12:54 AM 66.0 °F - 54.0 °F 65% 29.60 in 10.0 mi SE 8.1 mph - N/A   Clear
1:54 AM 64.9 °F - 55.0 °F 70% 29.63 in 10.0 mi SSE 9.2 mph - N/A   Clear
2:54 AM 64.9 °F - 55.0 °F 70% 29.65 in 10.0 mi East 6.9 mph - N/A   Overcast
3:54 AM 64.0 °F - 54.0 °F 70% 29.68 in 10.0 mi NE 13.8 mph - N/A   Overcast
4:12 AM 59.0 °F - 44.6 °F 59% 29.79 in 10.0 mi NNE 28.8 mph 34.5 mph N/A   Overcast
4:36 AM 53.6 °F - 35.6 °F 51% 29.80 in 9.0 mi NE 33.4 mph 47.2 mph N/A   Overcast
4:54 AM 52.0 °F - 33.1 °F 49% 29.75 in 10.0 mi NNE 27.6 mph 40.3 mph N/A   Overcast
5:54 AM 46.0 °F 35.2 °F 37.0 °F 71% 29.80 in 10.0 mi NNE 41.4 mph 49.5 mph N/A   Overcast
6:39 AM 44.6 °F 33.3 °F 37.4 °F 76% 29.92 in 10.0 mi NNE 40.3 mph 47.2 mph N/A   Overcast
6:54 AM 44.1 °F 33.7 °F 37.0 °F 76% 29.87 in 10.0 mi NNE 32.2 mph 48.3 mph N/A   Overcast
7:20 AM 42.8 °F 31.6 °F 37.4 °F 81% 29.97 in 10.0 mi NNE 34.5 mph 47.2 mph N/A   Overcast
7:54 AM 42.1 °F 30.6 °F 37.9 °F 85% 29.94 in 6.0 mi NNE 34.5 mph 49.5 mph 0.00 in Rain Light Rain
8:54 AM 41.0 °F 29.0 °F 37.9 °F 89% 29.99 in 5.0 mi NNE 35.7 mph 44.9 mph 0.00 in Rain Light Rain
9:54 AM 41.0 °F 30.0 °F 37.9 °F 89% 30.03 in 4.0 mi NNE 28.8 mph 42.6 mph 0.00 in Rain Light Rain
10:03 AM 41.0 °F 29.8 °F 37.4 °F 87% 30.08 in 4.0 mi NNE 29.9 mph 41.4 mph 0.00 in Rain Light Rain
10:21 AM 39.2 °F 27.4 °F 37.4 °F 93% 30.10 in 2.0 mi NNE 29.9 mph 39.1 mph 0.00 in Rain Light Rain
11:02 AM 39.2 °F 26.8 °F 37.4 °F 93% 30.12 in 2.5 mi NNE 33.4 mph 40.3 mph 0.00 in Rain Light Rain
11:16 AM 37.4 °F 24.8 °F 35.6 °F 93% 30.12 in 2.5 mi NNE 31.1 mph 39.1 mph 0.00 in Rain Light Rain
11:23 AM 39.2 °F 26.5 °F 35.6 °F 87% 30.12 in 3.0 mi NNE 35.7 mph 43.7 mph 0.00 in Rain Light Rain
11:30 AM 39.2 °F 27.2 °F 37.4 °F 93% 30.13 in 2.5 mi NNE 31.1 mph 43.7 mph 0.00 in Rain Light Rain
11:54 AM 37.9 °F 25.5 °F 36.0 °F 93% 30.12 in 3.0 mi NNE 31.1 mph 42.6 mph 0.00 in Rain Light Rain
12:08 PM 37.4 °F 24.6 °F 35.6 °F 93% 30.15 in 2.5 mi NNE 32.2 mph 41.4 mph 0.00 in Rain Light Rain
12:17 PM 39.2 °F 26.5 °F 37.4 °F 93% 30.15 in 3.0 mi NNE 35.7 mph 44.9 mph 0.00 in Rain Light Rain
12:40 PM 39.2 °F 26.6 °F 35.6 °F 87% 30.15 in 4.0 mi NNE 34.5 mph 43.7 mph 0.00 in Rain Light Rain
12:45 PM 37.4 °F 24.6 °F 35.6 °F 93% 30.15 in 2.5 mi NNE 32.2 mph 43.7 mph 0.00 in Snow Light Snow
12:54 PM 37.4 °F 24.4 °F 35.6 °F 93% 30.16 in 1.8 mi NNE 33.4 mph 44.9 mph N/A Snow Light Snow
1:00 PM 37.4 °F 24.6 °F 35.6 °F 93% 30.16 in 2.0 mi NNE 32.2 mph 41.4 mph 0.00 in Snow Light Snow
1:12 PM 37.4 °F 24.8 °F 35.6 °F 93% 30.17 in 1.8 mi NNE 31.1 mph 43.7 mph 0.00 in Snow Light Snow
1:19 PM 37.4 °F 24.0 °F 35.6 °F 93% 30.17 in 2.5 mi NNE 35.7 mph 42.6 mph 0.00 in Snow Light Snow
1:32 PM 37.4 °F 24.8 °F 35.6 °F 93% 30.17 in 3.0 mi NNE 31.1 mph 40.3 mph 0.00 in Snow Light Snow
1:34 PM 37.4 °F 24.8 °F 35.6 °F 93% 30.18 in 3.0 mi NNE 31.1 mph 40.3 mph 0.00 in Snow Light Snow
1:44 PM 39.2 °F 27.4 °F 35.6 °F 87% 30.18 in 8.0 mi NNE 29.9 mph 39.1 mph 0.00 in   Overcast
1:52 PM 37.4 °F 24.2 °F 35.6 °F 93% 30.19 in 5.0 mi NNE 34.5 mph 40.3 mph 0.00 in   Overcast
1:54 PM 37.9 °F 25.3 °F 35.1 °F 89% 30.17 in 4.0 mi NNE 32.2 mph 40.3 mph 0.00 in   Overcast
1:59 PM 37.4 °F 24.8 °F 35.6 °F 93% 30.19 in 2.5 mi NNE 31.1 mph 40.3 mph N/A   Overcast
2:11 PM 37.4 °F 24.6 °F 35.6 °F 93% 30.19 in 3.0 mi NNE 32.2 mph 44.9 mph N/A   Overcast
2:23 PM 37.4 °F 24.6 °F 35.6 °F 93% 30.19 in 3.0 mi NNE 32.2 mph 41.4 mph N/A   Overcast
2:31 PM 37.4 °F 25.2 °F 35.6 °F 93% 30.20 in 2.5 mi NNE 28.8 mph 40.3 mph N/A   Overcast
2:44 PM 37.4 °F 24.6 °F 35.6 °F 93% 30.20 in 2.5 mi NNE 32.2 mph 42.6 mph 0.00 in Snow Light Snow
2:49 PM 37.4 °F 24.6 °F 35.6 °F 93% 30.20 in 1.8 mi NNE 32.2 mph 41.4 mph 0.00 in Snow Light Snow
2:54 PM 37.9 °F 25.5 °F 35.1 °F 89% 30.19 in 2.0 mi NNE 31.1 mph 39.1 mph 0.00 in Snow Light Snow
3:05 PM 37.4 °F 25.0 °F 35.6 °F 93% 30.21 in 1.8 mi NNE 29.9 mph 38.0 mph 0.00 in Snow Light Snow
3:15 PM 37.4 °F 25.0 °F 35.6 °F 93% 30.22 in 3.0 mi NNE 29.9 mph 40.3 mph 0.00 in Rain Light Rain
3:45 PM 37.4 °F 24.6 °F 33.8 °F 87% 30.23 in 8.0 mi NNE 32.2 mph 41.4 mph 0.00 in   Overcast
3:54 PM 37.9 °F 25.3 °F 34.0 °F 86% 30.22 in 10.0 mi NNE 32.2 mph 42.6 mph 0.00 in   Overcast
4:02 PM 37.4 °F 25.4 °F 35.6 °F 93% 30.23 in 5.0 mi NNE 27.6 mph 39.1 mph 0.00 in Snow Light Snow
4:12 PM 37.4 °F 25.0 °F 35.6 °F 93% 30.24 in 2.0 mi NNE 29.9 mph 39.1 mph 0.00 in Snow Light Snow
4:16 PM 37.4 °F 25.2 °F 35.6 °F 93% 30.23 in 3.0 mi NNE 28.8 mph 39.1 mph 0.00 in Snow Light Snow
4:26 PM 37.4 °F 25.4 °F 35.6 °F 93% 30.24 in 2.0 mi NNE 27.6 mph 39.1 mph 0.00 in Snow Light Snow
4:33 PM 37.4 °F 25.4 °F 35.6 °F 93% 30.24 in 3.0 mi NNE 27.6 mph 39.1 mph 0.00 in Snow Light Snow
4:40 PM 37.4 °F 24.8 °F 33.8 °F 87% 30.24 in 3.0 mi NNE 31.1 mph 38.0 mph 0.00 in Snow Light Snow
4:49 PM 37.4 °F 25.4 °F 35.6 °F 93% 30.23 in 4.0 mi NNE 27.6 mph 42.6 mph 0.00 in   Overcast
4:54 PM 37.4 °F 25.2 °F 35.6 °F 93% 30.23 in 6.0 mi NNE 28.8 mph 42.6 mph N/A   Overcast
5:02 PM 37.4 °F 24.8 °F 35.6 °F 93% 30.24 in 4.0 mi NNE 31.1 mph 36.8 mph 0.00 in Snow Light Snow
5:10 PM 37.4 °F 25.0 °F 35.6 °F 93% 30.25 in 3.0 mi NNE 29.9 mph 39.1 mph 0.00 in Snow Light Snow
5:54 PM 37.0 °F 24.9 °F 34.0 °F 89% 30.28 in 5.0 mi NNE 27.6 mph 35.7 mph 0.00 in Snow Light Snow
6:20 PM 35.6 °F 22.5 °F 33.8 °F 93% 30.27 in 2.0 mi North 29.9 mph 39.1 mph 0.00 in Snow Light Snow
6:33 PM 35.6 °F 22.3 °F 33.8 °F 93% 30.28 in 7.0 mi NNE 31.1 mph 40.3 mph 0.00 in   Overcast
6:54 PM 35.1 °F 21.6 °F 32.0 °F 89% 30.32 in 9.0 mi NNE 31.1 mph 39.1 mph 0.00 in   Overcast
7:41 PM 33.8 °F 21.6 °F 32.0 °F 93% 30.33 in 2.5 mi NNE 23.0 mph 31.1 mph 0.00 in Snow Light Snow
7:54 PM 34.0 °F 20.1 °F 32.0 °F 92% 30.37 in 1.8 mi North 31.1 mph 39.1 mph 0.00 in Snow Light Snow
8:04 PM 33.8 °F 19.6 °F 30.2 °F 87% 30.35 in 3.0 mi NNE 32.2 mph 41.4 mph 0.00 in Snow Light Snow
8:25 PM 33.8 °F 20.5 °F 30.2 °F 87% 30.35 in 2.0 mi North 27.6 mph 34.5 mph 0.00 in Snow Light Snow
8:40 PM 33.8 °F 20.3 °F 30.2 °F 87% 30.36 in 4.0 mi North 28.8 mph 38.0 mph 0.00 in Snow Light Snow
8:54 PM 33.1 °F 19.3 °F 30.9 °F 92% 30.41 in 3.0 mi North 28.8 mph 41.4 mph 0.00 in Snow Light Snow
9:54 PM 33.1 °F 19.6 °F 30.0 °F 89% 30.45 in 7.0 mi North 27.6 mph - 0.00 in   Overcast
10:25 PM 32.0 °F 17.9 °F 30.2 °F 93% 30.42 in 4.0 mi North 28.8 mph 34.5 mph 0.00 in Snow Light Snow
10:46 PM 32.0 °F 17.9 °F 30.2 °F 93% 30.44 in 5.0 mi North 28.8 mph 35.7 mph 0.00 in Rain Light Freezing Rain
10:54 PM 32.0 °F 18.6 °F 30.0 °F 92% 30.49 in 10.0 mi North 25.3 mph 35.7 mph 0.00 in Rain Light Freezing Rain
11:14 PM 32.0 °F 19.8 °F 30.2 °F 93% 30.43 in 6.0 mi North 20.7 mph 28.8 mph 0.00 in   Overcast
11:24 PM 32.0 °F 20.1 °F 30.2 °F 93% 30.44 in 4.0 mi North 19.6 mph - 0.00 in Snow Light Snow
11:40 PM 32.0 °F 18.4 °F 30.2 °F 93% 30.45 in 6.0 mi North 26.5 mph 38.0 mph 0.00 in Snow Light Snow
11:54 PM 32.0 °F 18.9 °F 28.9 °F 88% 30.51 in 3.0 mi North 24.2 mph 34.5 mph 0.00 in Snow Light Snow